• In Uzbekistan
  • List of Countries
  • For 7 days
  • Water Temperature
  • Satellite Maps
  • Weather Map
  • Weather Widgets
  • user-avatar
    Login

    Hourly Weather Melbourne

    Today, 21 July, Friday

    Time Temperature Precipitation Wind Pressure Humidity
    00:00 +6°C° 0 mm 2 mps 765 mmHg 88%
    01:00 +6°C° 0 mm 2 mps 765 mmHg 90%
    02:00 +7°C° 0 mm 1 mps 765 mmHg 91%
    03:00 +6°C° 0 mm 1 mps 765 mmHg 92%
    04:00 +6°C° 0 mm 1 mps 765 mmHg 93%
    05:00 +6°C° 0 mm 1 mps 766 mmHg 93%
    06:00 +6°C° 0 mm 1 mps 766 mmHg 93%
    07:00 +6°C° 0 mm 1 mps 766 mmHg 93%
    08:00 +7°C° 0 mm 1 mps 766 mmHg 89%
    09:00 +9°C° 0 mm 1 mps 766 mmHg 84%
    10:00 +11°C° 0 mm 1 mps 767 mmHg 77%
    11:00 +12°C° 0 mm 1 mps 766 mmHg 69%
    12:00 +14°C° 0 mm 1 mps 766 mmHg 62%
    13:00 +15°C° 0 mm 1 mps 766 mmHg 55%
    14:00 +15°C° 0 mm 1 mps 765 mmHg 56%
    15:00 +15°C° 0 mm 1 mps 765 mmHg 57%
    16:00 +14°C° 0 mm 1 mps 765 mmHg 58%
    17:00 +13°C° 0 mm 2 mps 765 mmHg 65%
    18:00 +10°C° 0 mm 2 mps 765 mmHg 73%
    19:00 +8°C° 0 mm 2 mps 765 mmHg 81%
    20:00 +7°C° 0 mm 3 mps 766 mmHg 82%
    21:00 +7°C° 0 mm 3 mps 766 mmHg 84%
    22:00 +5°C° 0 mm 3 mps 766 mmHg 86%
    23:00 +5°C° 0 mm 3 mps 766 mmHg 84%

    Tomorrow, 22 July, Saturday

    Time Temperature Precipitation Wind Pressure Humidity
    00:00 +5°C° 0 mm 3 mps 765 mmHg 83%
    01:00 +5°C° 0 mm 4 mps 765 mmHg 82%
    02:00 +5°C° 0 mm 4 mps 765 mmHg 80%
    03:00 +5°C° 0 mm 4 mps 765 mmHg 78%
    04:00 +5°C° 0 mm 4 mps 764 mmHg 76%
    05:00 +5°C° 0 mm 5 mps 764 mmHg 74%
    06:00 +5°C° 0 mm 5 mps 764 mmHg 72%
    07:00 +5°C° 0 mm 5 mps 764 mmHg 70%
    08:00 +5°C° 0 mm 6 mps 764 mmHg 66%
    09:00 +8°C° 0 mm 7 mps 764 mmHg 63%
    10:00 +9°C° 0 mm 7 mps 763 mmHg 59%
    11:00 +10°C° 0 mm 7 mps 763 mmHg 57%
    12:00 +11°C° 0 mm 7 mps 762 mmHg 54%
    13:00 +13°C° 0 mm 6 mps 761 mmHg 51%
    14:00 +12°C° 0 mm 7 mps 761 mmHg 54%
    15:00 +11°C° 0 mm 7 mps 760 mmHg 56%
    16:00 +11°C° 0 mm 7 mps 760 mmHg 58%
    17:00 +11°C° 0 mm 7 mps 760 mmHg 58%
    18:00 +10°C° 0 mm 7 mps 760 mmHg 59%
    19:00 +10°C° 0 mm 7 mps 760 mmHg 59%
    20:00 +10°C° 0 mm 7 mps 760 mmHg 58%
    21:00 +10°C° 0 mm 7 mps 760 mmHg 57%
    22:00 +10°C° 0 mm 6 mps 760 mmHg 56%
    23:00 +10°C° 0 mm 6 mps 759 mmHg 54%

    Day after tomorrow, 23 July, Sunday

    Time Temperature Precipitation Wind Pressure Humidity
    00:00 +10°C° 0 mm 6 mps 759 mmHg 53%
    01:00 +10°C° 0 mm 6 mps 758 mmHg 52%
    02:00 +10°C° 0 mm 6 mps 758 mmHg 54%
    03:00 +9°C° 0 mm 6 mps 758 mmHg 55%
    04:00 +9°C° 0 mm 6 mps 757 mmHg 56%
    05:00 +9°C° 0 mm 6 mps 757 mmHg 60%
    06:00 +9°C° 0 mm 5 mps 758 mmHg 64%
    07:00 +8°C° 0 mm 5 mps 758 mmHg 67%
    08:00 +9°C° 0 mm 5 mps 758 mmHg 67%
    09:00 +10°C° 0 mm 5 mps 758 mmHg 66%
    10:00 +12°C° 0 mm 5 mps 758 mmHg 65%
    11:00 +13°C° 0.2 mm 5 mps 758 mmHg 66%
    12:00 +13°C° 0.2 mm 6 mps 758 mmHg 67%
    13:00 +14°C° 0.2 mm 6 mps 757 mmHg 67%
    14:00 +14°C° 0.5 mm 5 mps 757 mmHg 71%
    15:00 +14°C° 0.5 mm 5 mps 757 mmHg 75%
    16:00 +13°C° 0.5 mm 5 mps 757 mmHg 79%
    17:00 +13°C° 0.4 mm 4 mps 757 mmHg 81%
    18:00 +12°C° 0.4 mm 4 mps 758 mmHg 84%
    19:00 +11°C° 0.4 mm 4 mps 758 mmHg 86%
    20:00 +11°C° 0.1 mm 4 mps 758 mmHg 88%
    21:00 +10°C° 0.1 mm 4 mps 759 mmHg 89%
    22:00 +10°C° 0.1 mm 4 mps 759 mmHg 91%
    23:00 +10°C° 0 mm 4 mps 759 mmHg 91%

    24 July, Monday

    Time Temperature Precipitation Wind Pressure Humidity
    00:00 +10°C° 0 mm 3 mps 760 mmHg 92%
    01:00 +9°C° 0 mm 3 mps 760 mmHg 92%
    02:00 +9°C° 0 mm 3 mps 760 mmHg 92%
    03:00 +9°C° 0 mm 3 mps 760 mmHg 92%
    04:00 +9°C° 0 mm 3 mps 761 mmHg 92%
    05:00 +9°C° 0 mm 3 mps 761 mmHg 92%
    06:00 +9°C° 0 mm 3 mps 762 mmHg 92%
    07:00 +8°C° 0 mm 3 mps 762 mmHg 92%
    08:00 +9°C° 0 mm 3 mps 763 mmHg 87%
    09:00 +11°C° 0 mm 3 mps 763 mmHg 82%
    10:00 +12°C° 0 mm 3 mps 763 mmHg 77%
    11:00 +12°C° 0 mm 3 mps 763 mmHg 73%
    12:00 +13°C° 0 mm 3 mps 763 mmHg 68%
    13:00 +14°C° 0 mm 3 mps 762 mmHg 63%
    14:00 +14°C° 0.1 mm 3 mps 762 mmHg 67%
    15:00 +14°C° 0.1 mm 2 mps 762 mmHg 72%
    16:00 +14°C° 0.1 mm 2 mps 762 mmHg 76%
    17:00 +13°C° 0.1 mm 2 mps 762 mmHg 81%
    18:00 +11°C° 0.1 mm 3 mps 762 mmHg 85%
    19:00 +10°C° 0.1 mm 3 mps 762 mmHg 90%
    20:00 +10°C° 0 mm 3 mps 763 mmHg 91%
    21:00 +10°C° 0 mm 3 mps 763 mmHg 91%
    22:00 +10°C° 0 mm 4 mps 763 mmHg 92%
    23:00 +10°C° 0 mm 4 mps 762 mmHg 92%

    25 July, Tuesday

    Time Temperature Precipitation Wind Pressure Humidity
    00:00 +10°C° 0 mm 4 mps 762 mmHg 91%
    01:00 +10°C° 0 mm 4 mps 762 mmHg 91%
    02:00 +10°C° 0 mm 4 mps 761 mmHg 91%
    03:00 +9°C° 0 mm 5 mps 761 mmHg 90%
    04:00 +9°C° 0 mm 5 mps 761 mmHg 89%
    05:00 +9°C° 0 mm 5 mps 760 mmHg 87%
    06:00 +9°C° 0 mm 5 mps 760 mmHg 85%
    07:00 +9°C° 0 mm 5 mps 760 mmHg 83%
    08:00 +10°C° 0 mm 6 mps 760 mmHg 79%
    09:00 +11°C° 0 mm 6 mps 760 mmHg 75%
    10:00 +13°C° 0 mm 6 mps 760 mmHg 71%
    11:00 +14°C° 0 mm 6 mps 759 mmHg 67%
    12:00 +15°C° 0 mm 6 mps 758 mmHg 63%
    13:00 +16°C° 0 mm 7 mps 758 mmHg 59%
    14:00 +16°C° 0.3 mm 6 mps 758 mmHg 63%
    15:00 +15°C° 0.3 mm 6 mps 757 mmHg 67%
    16:00 +15°C° 0.3 mm 5 mps 757 mmHg 71%
    17:00 +14°C° 0.2 mm 5 mps 757 mmHg 75%
    18:00 +13°C° 0.2 mm 4 mps 757 mmHg 78%
    19:00 +12°C° 0.2 mm 4 mps 758 mmHg 82%
    20:00 +11°C° 0 mm 4 mps 758 mmHg 82%
    21:00 +11°C° 0 mm 4 mps 758 mmHg 83%
    22:00 +10°C° 0 mm 4 mps 758 mmHg 83%
    23:00 +10°C° 0 mm 4 mps 758 mmHg 84%

    26 July, Wednesday

    Time Temperature Precipitation Wind Pressure Humidity
    00:00 +10°C° 0 mm 4 mps 758 mmHg 85%
    01:00 +10°C° 0 mm 4 mps 758 mmHg 86%
    02:00 +8°C° 0 mm 4 mps 758 mmHg 86%
    03:00 +8°C° 0 mm 4 mps 758 mmHg 87%
    04:00 +8°C° 0 mm 4 mps 758 mmHg 87%
    05:00 +8°C° 0 mm 4 mps 759 mmHg 87%
    06:00 +8°C° 0 mm 4 mps 759 mmHg 87%
    07:00 +7°C° 0 mm 4 mps 760 mmHg 87%
    08:00 +8°C° 0.4 mm 4 mps 760 mmHg 86%
    09:00 +10°C° 0.4 mm 4 mps 761 mmHg 85%
    10:00 +10°C° 0.4 mm 4 mps 761 mmHg 84%
    11:00 +9°C° 0.5 mm 5 mps 761 mmHg 83%
    12:00 +10°C° 0.5 mm 5 mps 762 mmHg 81%
    13:00 +10°C° 0.5 mm 5 mps 762 mmHg 80%
    14:00 +10°C° 0.4 mm 5 mps 762 mmHg 81%
    15:00 +10°C° 0.4 mm 4 mps 763 mmHg 83%
    16:00 +10°C° 0.4 mm 4 mps 763 mmHg 84%
    17:00 +8°C° 0.3 mm 4 mps 764 mmHg 87%
    18:00 +8°C° 0.3 mm 3 mps 764 mmHg 89%
    19:00 +7°C° 0.3 mm 3 mps 765 mmHg 91%
    20:00 +7°C° 0.3 mm 3 mps 766 mmHg 91%
    21:00 +5°C° 0.3 mm 3 mps 766 mmHg 91%
    22:00 +5°C° 0.3 mm 3 mps 767 mmHg 92%
    23:00 +4°C° 0.2 mm 3 mps 767 mmHg 92%
    Show more